DAMPETORP Weather Reports


Display with metric or nautical units.
time (UTC)temp
F
wind
direction
speed
MPH
gust
MPH
rain 1hr
in
rain 24hr
in
rain mn
in
humidity
%
barometer
mb
20260902174529 60 43 3.0 10.0 0.00 0.00 0.00 69 1006.3
20260902173041 60 72 2.0 10.0 0.00 0.00 0.00 66 1006.3
20260902171528 61 131 2.0 6.0 0.00 0.00 0.00 63 1006.3
20260902170028 61 14 1.0 10.0 0.00 0.00 0.00 61 1006.3
20260902164527 62 309 4.0 11.0 0.00 0.00 0.00 58 1006.3
20260902163027 63 56 1.0 14.0 0.00 0.00 0.00 55 1006.3
20260902161526 64 177 1.0 13.0 0.00 0.00 0.00 55 1006.3
20260902160025 64 62 5.0 17.0 0.00 0.00 0.00 53 1006.2
20260902154527 64 161 2.0 14.0 0.00 0.00 0.00 54 1006.3
20260902153030 65 113 2.0 14.0 0.00 0.00 0.00 51 1006.3
20260902151524 65 24 4.0 12.0 0.00 0.00 0.00 51 1006.3
20260902150024 66 311 4.0 14.0 0.00 0.00 0.00 53 1006.5
20260902144525 65 340 2.0 10.0 0.00 0.00 0.00 57 1006.5
20260902143023 64 105 2.0 13.0 0.00 0.00 0.00 56 1006.6
20260902141522 66 27 6.0 14.0 0.00 0.00 0.00 55 1006.6
20260902140032 66 58 4.0 16.0 0.00 0.00 0.00 54 1006.6
20260902134521 66 77 6.0 16.0 0.00 0.00 0.00 52 1006.6
20260902133021 65 69 5.0 16.0 0.00 0.00 0.00 52 1006.7
20260902131518 65 4 4.0 19.0 0.00 0.00 0.00 52 1006.6
20260902130019 66 40 2.0 12.0 0.00 0.00 0.00 52 1006.5
20260902124518 66 103 6.0 21.0 0.00 0.00 0.00 47 1006.5
20260902123023 66 10 4.0 14.0 0.00 0.00 0.00 47 1006.5
20260902121511 66 155 6.0 14.0 0.00 0.00 0.00 53 1006.3
20260902120009 67 52 5.0 20.0 0.00 0.00 0.00 55 1006.3
20260902114508 67 321 6.0 16.0 0.00 0.00 0.00 57 1006.4
20260902113006 66 161 3.0 13.0 0.00 0.00 0.00 57 1006.3
20260902111511 65 140 4.0 10.0 0.00 0.00 0.00 65 1006.4
20260902110012 65 143 3.0 9.0 0.00 0.00 0.00 65 1006.4
20260902104503 67 136 2.0 12.0 0.00 0.00 0.00 60 1006.4
20260902103001 68 89 2.0 15.0 0.00 0.00 0.00 61 1006.3
20260902101557 68 297 3.0 14.0 0.00 0.00 0.00 64 1006.4
20260902100054 66 98 0.0 9.0 0.00 0.00 0.00 69 1006.5
20260902094553 65 155 2.0 12.0 0.00 0.00 0.00 71 1006.7
20260902093048 65 46 1.0 10.0 0.00 0.00 0.00 76 1006.6
20260902091545 63 53 1.0 10.0 0.00 0.00 0.00 80 1006.8
20260902090041 61 47 1.0 6.0 0.00 0.00 0.00 86 1006.9
20260902084543 60 337 1.0 7.0 0.00 0.00 0.00 88 1006.9
20260902083035 60 329 2.0 6.0 0.00 0.00 0.00 88 1007.0
20260902081536 59 335 3.0 8.0 0.00 0.00 0.00 88 1007.0
20260902080037 59 91 2.0 10.0 0.00 0.00 0.00 88 1007.0
20260902074533 59 64 0.0 7.0 0.00 0.00 0.00 88 1007.0
20260902073035 59 1 2.0 9.0 0.00 0.00 0.00 88 1006.9
20260902071536 59 326 1.0 8.0 0.00 0.00 0.00 88 1006.9
20260902070027 59 30 4.0 11.0 0.00 0.00 0.00 88 1007.0
20260902064526 59 334 2.0 7.0 0.00 0.00 0.00 88 1006.9
20260902063030 58 58 3.0 6.0 0.00 0.00 0.00 89 1006.9
20260902061539 58 57 1.0 8.0 0.00 0.00 0.00 90 1007.0
20260902060025 57 316 3.0 6.0 0.00 0.00 0.00 90 1006.9
20260902054529 57 80 1.0 8.0 0.00 0.00 0.00 90 1007.0
20260902053022 56 100 2.0 9.0 0.00 0.00 0.00 91 1006.9
20260902051516 56 62 2.0 8.0 0.00 0.00 0.00 91 1007.0
20260902050015 56 319 3.0 9.0 0.00 0.00 0.00 91 1007.1
20260902044515 56 59 1.0 6.0 0.00 0.00 0.00 91 1007.0
20260902043017 56 46 1.0 6.0 0.00 0.00 0.00 91 1007.1
20260902041513 56 46 3.0 9.0 0.00 0.00 0.00 91 1007.0
20260902040012 55 331 2.0 7.0 0.00 0.00 0.00 91 1007.1
20260902034512 55 46 1.0 6.0 0.00 0.00 0.00 92 1007.2
20260902033013 55 319 1.0 8.0 0.00 0.00 0.00 91 1007.1
20260902031508 55 339 1.0 5.0 0.00 0.00 0.00 91 1007.2
20260902030008 56 6 2.0 12.0 0.00 0.00 0.00 90 1007.3
20260902024506 56 6 2.0 9.0 0.00 0.00 0.00 89 1007.4
20260902023006 57 30 3.0 9.0 0.00 0.00 0.00 89 1007.3
20260902021514 57 55 2.0 7.0 0.00 0.00 0.00 89 1007.3
20260902020005 57 60 1.0 8.0 0.00 0.00 0.00 90 1007.3
20260902014509 58 346 4.0 10.0 0.00 0.00 0.00 90 1007.3
20260902013003 58 58 0.0 12.0 0.00 0.00 0.00 90 1007.3
20260902011501 58 42 0.0 5.0 0.00 0.00 0.00 91 1007.3
20260902010000 58 101 2.0 7.0 0.00 0.00 0.00 92 1007.2
20260902004600 57 56 2.0 7.0 0.00 0.00 0.00 92 1007.3
20260902003100 57 3 0.0 5.0 0.00 0.00 0.00 92 1007.3
20260902001557 57 37 0.0 6.0 0.00 0.00 0.00 92 1007.3
20260902000057 57 39 1.0 5.0 0.00 0.00 0.00 92 1007.4
20260901234606 57 59 0.0 4.0 0.00 0.00 0.00 92 1007.4
20260901233056 57 312 0.0 5.0 0.00 0.00 0.00 92 1007.4
20260901231553 56 31 0.0 6.0 0.00 0.00 0.00 92 1007.4
20260901230053 56 8 3.0 8.0 0.00 0.00 0.00 93 1007.5
20260901224553 55 349 0.0 3.0 0.00 0.00 0.00 93 1007.5
20260901223050 55 53 0.0 1.0 0.00 0.00 0.00 92 1007.5
20260901221615 56 337 0.0 5.0 0.00 0.00 0.00 92 1007.5
20260901220045 56 65 0.0 3.0 0.00 0.00 0.00 91 1007.6
20260901214544 57 39 1.0 3.0 0.00 0.00 0.00 92 1007.5
20260901213102 57 38 0.0 3.0 0.00 0.00 0.00 91 1007.4
20260901211550 57 58 1.0 3.0 0.00 0.00 0.00 91 1007.3
20260901210042 57 41 0.0 3.0 0.00 0.00 0.00 92 1007.4
20260901204541 57 78 0.0 2.0 0.00 0.00 0.00 93 1007.4
20260901203051 56 39 0.0 1.0 0.00 0.00 0.00 93 1007.3
20260901201540 55 39 0.0 1.0 0.00 0.00 0.00 94 1007.3
20260901200050 55 39 0.0 0.0 0.00 0.00 0.00 95 1007.3
20260901194538 54 39 0.0 0.0 0.00 0.00 0.00 94 1007.2
20260901193055 54 39 0.0 0.0 0.00 0.00 0.00 93 1007.3
20260901191538 55 39 0.0 0.0 0.00 0.00 0.00 92 1007.2
20260901190036 56 39 0.0 0.0 0.00 0.00 0.00 91 1007.2
20260901184539 57 39 0.0 0.0 0.00 0.00 0.00 90 1007.0
20260901183035 58 39 0.0 0.0 0.00 0.00 0.00 88 1007.0
20260901181537 59 39 0.0 0.0 0.00 0.00 0.00 86 1006.9
20260901180032 61 39 0.0 0.0 0.00 0.00 0.00 83 1006.9